Regional Weather Roundup
Issued by NWS Little Rock, AR

Home | Current Version | Previous Version | Text Only | Print | Product List | Glossary On
Versions: 1 2 3 4 5 6 7 8 9 10 11 12 13 14 15 16 17 18 19 20 21 22 23 24 25 26 27 28 29 30 31 32
000
ASUS44 KLZK 250205
RWRLZK

WEATHER ROUNDUP FOR ARKANSAS
NATIONAL WEATHER SERVICE LITTLE ROCK AR
900 PM CDT THU MAY 24 2018

NOTE: "FAIR" INDICATES FEW OR NO CLOUDS BELOW 12,000 FEET WITH NO
SIGNIFICANT WEATHER AND/OR OBSTRUCTIONS TO VISIBILITY.

ARZ001-003-010-029-250300-
NORTHWEST ARKANSAS

CITY           SKY/WX    TMP DP  RH WIND       PRES   REMARKS
FAYETTEVILLE   PTCLDY    70  67  90 CALM      30.06R
FORT SMITH     PTCLDY    74  69  85 E5        30.02R
HARRISON       CLOUDY    68  67  96 CALM      30.08R
BENTONVILLE    HAZE      73  66  78 S5        30.07R VSB 1
ROGERS         CLOUDY    73  66  78 SE6       30.07R
SILOAM SPGS    MOCLDY    71  69  93 SE5       30.06R
HIGHFILL       CLOUDY    72  68  87 S3        30.06R
SPRINGDALE     PTCLDY    72  68  88 SE6       30.07S
$$

ARZ004-005-016-250300-
NORTH CENTRAL ARKANSAS

CITY           SKY/WX    TMP DP  RH WIND       PRES   REMARKS
BATESVILLE     LGT RAIN  69  66  90 CALM      30.04S
FLIPPIN        MOCLDY    67  66  97 SW3       30.05S
MTN HOME       PTCLDY    68  64  87 W3        30.04S
$$

ARZ040-041-250300-
WEST CENTRAL ARKANSAS

CITY           SKY/WX    TMP DP  RH WIND       PRES   REMARKS
MENA           MOCLDY   N/A N/A N/A CALM      30.07R
MOUNT IDA      LGT RAIN  73  73 100 CALM      30.03R
$$

ARZ009-017-025-026-028-250300-
NORTHEAST ARKANSAS

CITY           SKY/WX    TMP DP  RH WIND       PRES   REMARKS
CORNING        FAIR      77  73  88 NW3       30.03R
JONESBORO      FAIR      73  73 100 CALM      30.02F
NEWPORT        FAIR      76  70  82 SE6       30.02F
WALNUT RIDGE     N/A     78  74  87 S3        30.03R
BLYTHEVILLE    FAIR      78  69  73 CALM      30.03R
$$

ARZ022-023-033-042-044-250300-
CENTRAL ARKANSAS

CITY           SKY/WX    TMP DP  RH WIND       PRES   REMARKS
LITTLE ROCK    MOCLDY    79  72  79 CALM      30.01S
N LITTLE ROCK    N/A     77  72  83 SW6       29.99R
JACKSONVILLE   CLEAR     78  73  85 CALM      30.01S
CONWAY           N/A     77  73  88 CALM      30.01S
SEARCY         FAIR      75  72  90 CALM      30.03S
HOT SPRINGS    PTCLDY    77  73  87 CALM      30.03S
RUSSELLVILLE   CLOUDY    74  73  97 CALM      30.02R
CLINTON        FAIR      72  70  94 CALM      30.05R
$$

ARZ036-250300-
EAST ARKANSAS

CITY           SKY/WX    TMP DP  RH WIND       PRES   REMARKS
WEST MEMPHIS   MOCLDY    75  74  96 SE6       30.02S
$$

ARZ050-053-066-070-073-250300-
SOUTHWEST ARKANSAS

CITY           SKY/WX    TMP DP  RH WIND       PRES   REMARKS
ARKADELPHIA    FAIR      77  74  90 CALM      30.02S FOG
CAMDEN         CLOUDY    77  70  78 CALM      30.01S
TEXARKANA      CLEAR     76  73  91 CALM      30.01S
EL DORADO      FAIR      80  73  79 SE5       30.03R
DE QUEEN       CLEAR     76  68  76 E3        30.00R
$$

ARZ056-057-069-250300-
SOUTHEAST ARKANSAS

CITY           SKY/WX    TMP DP  RH WIND       PRES   REMARKS
PINE BLUFF     LGT RAIN  77  71  82 CALM      30.02R
STUTTGART      FAIR      80  71  74 E8        30.03R
MONTICELLO     MOCLDY    78  68  71 SW10G22   30.04R

$$






USA.gov is the U.S. government's official web portal to all federal, state and local government web resources and services.